Temp
58 59 61 61 60 58 59 69 63 75 79 68 71 67 72 59 65 66 66 67 66 66 65 63 63 62 59 58 59 56 59 58 57 52 51 52 51 51 50 45 42 45 39 43
57 57 60 61 59 57 68 65 70 76 76 62 63 66 63 65 63 65 64 64 65 64 63 59 60 58 53 54 55 56 58 57 54 46 47 50 48 50 49 46 45 40 37 47
57 56 57 60 59 58 64 65 60 68 70 72 67 66 65 62 62 65 66 65 65 62 60 60 56 56 52 53 55 50 53 56 55 52 51 52 45 44 46 48 41 43 44 50
56 56 57 58 59 59 63 64 61 63 59 63 66 70 69 63 58 63 66 61 63 63 56 58 58 57 51 52 52 54 55 53 55 56 51 50 50 49 44 39 48 41 50 47
56 55 55 56 58 57 62 61 58 61 58 60 64 58 60 64 65 62 61 61 65 66 63 64 60 58 58 57 53 54 55 53 52 53 50 48 46 49 50 46 45 46 47 46
55 55 55 55 55 56 63 65 63 61 53 60 60 61 64 64 68 62 61 65 65 62 63 62 65 63 65 62 56 54 53 52 51 52 49 48 47 52 50 50 50 50 46 50
54 53 54 54 54 54 61 66 63 59 53 56 60 61 65 64 66 64 60 62 65 57 65 65 64 61 58 57 54 58 53 52 48 47 51 43 50 51 55 52 53 53 50 48
54 53 53 54 54 53 58 64 61 58 53 60 60 59 59 59 58 56 57 54 58 65 63 54 51 53 52 50 51 52 54 52 39 42 51 59 47 47 48 47 53 57 52 53
54 53 53 53 53 53 55 61 63 59 55 54 63 59 59 57 58 53 49 54 63 57 55 51 45 50 57 46 44 49 49 52 46 43 39 46 56 52 54 53 48 56 55 53
54 53 52 53 53 53 53 59 61 58 52 60 61 57 55 65 62 56 52 51 50 54 50 49 51 56 58 50 49 42 44 43 37 45 43 55 55 52 53 48 52 55 55 53
53 53 53 53 53 53 51 57 58 57 54 55 55 57 57 57 61 51 56 52 51 47 43 52 57 56 57 56 58 48 44 38 39 46 39 44 53 47 48 54 56 54 55 53
52 53 53 53 51 51 52 51 56 57 53 50 53 54 54 54 53 59 56 58 57 57 53 56 60 51 52 57 55 53 48 54 49 51 57 56 54 55 56 57 55 54 54 52
53 52 52 52 51 50 50 49 56 54 50 49 51 52 53 55 55 57 53 56 63 61 61 58 53 49 59 51 56 56 54 54 49 51 60 55 54 55 55 56 56 56 56 52
53 53 52 52 51 51 51 47 55 52 53 46 49 54 52 54 55 55 55 56 56 59 54 44 48 51 56 60 59 58 57 53 55 55 60 53 56 57 54 54 55 54 54 52
53 53 53 52 51 50 49 48 52 54 49 43 45 49 51 52 54 54 55 56 56 55 49 47 49 55 52 53 53 54 54 59 56 61 69 66 63 57 56 51 51 52 51 49
53 52 53 53 51 50 46 42 46 49 53 45 40 48 48 50 53 53 53 54 53 54 55 54 56 48 51 47 52 68 61 64 69 66 66 57 57 59 56 52 52 52 51 51
52 52 52 52 51 47 43 43 46 50 50 42 36 41 46 50 51 50 49 49 49 53 54 51 56 50 49 46 50 65 66 63 65 61 55 52 55 53 55 54 54 52 53 51
52 52 52 51 50 48 43 46 47 49 43 41 35 36 41 49 46 45 49 44 46 47 51 48 50 46 47 37 52 58 65 66 63 56 58 57 58 56 53 54 52 49 48 48
51 51 50 50 44 42 46 47 47 44 40 33 36 38 38 46 44 45 44 47 40 44 44 47 49 47 38 50 53 58 59 61 60 57 54 56 53 52 52 51 49 48 48 48
50 48 45 39 43 48 47 43 39 37 35 37 36 48 38 46 42 39 40 40 42 36 46 45 40 47 54 57 58 60 65 63 61 52 48 52 52 51 51 50 51 50 49 48
48 42 40 44 48 43 40 32 32 32 32 35 43 48 38 43 41 40 42 37 36 33 44 40 42 44 51 61 60 62 64 68 62 63 62 56 57 52 52 51 51 52 50 48
44 43 45 42 36 33 32 32 32 32 36 37 39 43 46 39 42 40 35 37 36 34 41 37 39 50 55 56 58 63 66 66 61 61 63 57 59 56 54 52 51 52 51 50
48 40 34 32 33 29 30 29 32 33 40 39 41 38 38 36 38 36 36 32 36 44 36 37 45 54 53 54 55 56 64 65 60 58 62 58 58 57 54 52 53 52 49 48
35 31 28 30 30 31 35 37 42 47 47 43 46 38 37 37 35 35 34 37 37 33 34 40 54 52 57 58 54 54 60 59 57 57 59 57 55 54 54 53 52 50 47 46
31 30 26 30 38 39 41 41 41 43 48 45 41 38 39 34 32 33 30 27 32 37 44 53 55 58 60 62 52 56 58 58 56 57 56 55 54 53 51 52 51 50 46 45
31 29 27 34 34 37 41 41 38 41 44 46 43 35 33 32 33 29 32 38 37 44 49 58 53 53 52 53 52 55 57 58 57 57 55 54 52 51 50 51 49 48 46 44
28 27 34 35 36 35 37 39 38 38 35 33 35 32 34 33 33 33 42 43 56 59 57 58 53 49 48 49 51 54 54 56 57 56 54 53 52 52 48 45 47 47 46 45
MSLP
1018.89 1018.26 1017.99 1017.95 1017.87 1017.61 1017.50 1016.36 1014.92 1014.61 1014.46 1014.04 1012.46 1011.85 1011.72 1012.99 1013.25 1013.81 1013.46 1013.29 1013.00 1012.89 1013.28 1013.73 1014.47 1015.65 1017.53 1018.90 1019.03 1018.65 1018.59 1018.05 1017.78 1019.00 1020.56 1021.11 1020.98 1020.46 1020.44 1020.01 1020.05 1019.83 1020.11 1019.56
1019.20 1018.49 1017.91 1017.84 1017.85 1017.88 1017.36 1015.92 1014.45 1014.66 1014.30 1012.88 1012.21 1012.57 1012.86 1013.17 1013.66 1013.53 1013.58 1013.47 1013.67 1013.91 1013.84 1014.50 1015.39 1016.91 1019.25 1019.87 1019.83 1019.54 1019.14 1018.09 1017.60 1019.11 1020.61 1020.99 1020.90 1020.90 1021.17 1021.23 1021.13 1020.18 1020.26 1019.35
1019.50 1018.92 1018.11 1017.80 1017.81 1017.89 1017.85 1016.40 1014.71 1014.31 1014.10 1012.89 1012.29 1012.01 1012.45 1013.11 1013.97 1013.67 1013.73 1013.72 1014.13 1014.24 1014.44 1015.21 1015.97 1017.36 1019.45 1020.32 1020.42 1020.74 1020.20 1018.53 1017.70 1017.81 1018.65 1019.49 1020.23 1020.88 1021.37 1021.02 1020.81 1019.86 1019.50 1019.12
1019.52 1019.12 1018.35 1017.79 1017.63 1017.89 1018.03 1016.33 1014.79 1014.28 1013.36 1012.92 1012.50 1011.76 1011.65 1012.33 1013.34 1013.93 1013.98 1014.08 1013.80 1013.83 1014.35 1015.02 1015.75 1017.22 1019.24 1020.29 1020.72 1020.62 1019.94 1018.60 1017.87 1017.62 1018.52 1019.23 1019.53 1020.06 1021.03 1020.95 1020.08 1020.11 1018.88 1019.30
1019.91 1019.51 1019.01 1018.12 1017.69 1017.62 1017.61 1016.14 1015.69 1014.99 1014.16 1013.38 1012.69 1012.67 1012.20 1011.91 1012.41 1013.24 1013.57 1013.59 1013.38 1013.99 1014.14 1014.45 1015.01 1016.42 1017.54 1018.34 1020.23 1020.13 1019.86 1018.95 1018.35 1017.49 1018.37 1018.99 1019.14 1019.33 1019.76 1020.19 1020.30 1019.92 1019.63 1019.52
1019.84 1019.62 1019.17 1018.51 1018.03 1017.63 1016.92 1016.28 1016.20 1015.41 1014.40 1013.56 1012.85 1012.42 1011.85 1011.87 1012.40 1013.58 1013.83 1013.74 1013.96 1014.61 1014.98 1015.72 1015.90 1016.60 1016.91 1017.61 1018.70 1019.33 1019.44 1018.99 1018.51 1017.40 1018.16 1018.46 1018.21 1017.46 1018.39 1018.57 1018.88 1019.05 1018.95 1019.49
1019.78 1019.55 1019.30 1018.54 1018.54 1018.18 1017.29 1016.29 1016.06 1015.20 1014.18 1013.80 1012.89 1012.72 1012.16 1012.45 1012.82 1013.29 1014.53 1014.84 1014.80 1016.35 1016.27 1016.58 1016.96 1017.40 1017.91 1018.52 1019.22 1019.28 1019.21 1019.11 1019.08 1018.13 1017.73 1017.46 1016.82 1017.50 1017.50 1017.78 1017.79 1018.36 1018.78 1019.86
1019.79 1019.49 1019.22 1018.33 1018.35 1017.77 1017.49 1016.70 1016.28 1015.40 1014.33 1013.64 1013.28 1013.39 1013.19 1013.73 1014.27 1014.88 1015.68 1016.63 1016.83 1016.67 1016.30 1016.46 1016.89 1017.12 1017.78 1018.70 1019.51 1019.83 1019.82 1019.53 1019.51 1018.78 1017.06 1015.39 1016.56 1017.38 1017.66 1017.62 1016.77 1016.92 1018.06 1019.34
1019.83 1019.63 1019.32 1019.14 1018.54 1018.01 1017.85 1016.67 1016.55 1016.16 1015.06 1013.67 1013.49 1013.72 1013.86 1013.70 1014.30 1015.74 1017.11 1018.05 1017.82 1017.92 1016.88 1016.19 1015.78 1015.25 1015.43 1017.44 1019.14 1020.33 1020.40 1020.18 1019.72 1019.00 1017.79 1015.72 1015.61 1016.86 1017.48 1017.65 1016.93 1016.86 1017.85 1019.10
1019.58 1019.39 1019.16 1018.98 1018.68 1018.02 1017.79 1016.38 1016.44 1016.36 1015.71 1014.45 1014.33 1014.27 1014.08 1013.65 1014.04 1015.13 1016.92 1017.93 1018.54 1018.46 1016.86 1015.69 1014.65 1013.99 1014.41 1015.31 1016.68 1018.74 1019.65 1019.94 1019.44 1018.40 1017.49 1015.51 1015.97 1017.07 1017.83 1017.59 1017.03 1017.03 1017.93 1019.13
1019.46 1019.32 1018.96 1018.85 1018.37 1017.83 1017.48 1016.82 1016.62 1016.42 1015.88 1015.45 1015.49 1015.25 1014.71 1014.83 1014.55 1015.00 1016.14 1017.29 1017.65 1017.72 1016.73 1015.05 1013.67 1013.39 1013.65 1013.99 1014.68 1016.07 1016.93 1018.07 1018.01 1017.58 1017.16 1015.94 1016.49 1017.78 1017.49 1016.36 1016.73 1017.41 1018.32 1019.39
1019.37 1019.29 1018.97 1018.94 1018.44 1017.81 1017.47 1017.81 1017.20 1016.89 1017.02 1016.91 1016.66 1016.37 1016.19 1015.76 1015.82 1015.20 1015.67 1014.93 1014.58 1014.80 1014.76 1014.17 1013.23 1013.30 1013.54 1013.05 1013.52 1015.23 1015.37 1015.18 1015.49 1015.24 1014.34 1014.45 1015.58 1015.66 1016.27 1016.51 1016.90 1017.82 1018.59 1019.81
1019.21 1019.12 1018.96 1018.50 1018.41 1018.17 1018.24 1017.45 1017.35 1017.15 1016.93 1016.86 1016.64 1016.09 1016.40 1016.36 1016.08 1016.10 1015.60 1015.49 1014.39 1014.09 1014.26 1013.80 1013.87 1013.13 1012.73 1012.69 1012.61 1013.38 1014.21 1014.70 1014.69 1014.20 1013.12 1014.03 1015.04 1016.02 1016.62 1016.97 1017.23 1018.10 1018.91 1020.06
1018.98 1018.87 1018.76 1018.51 1018.44 1018.09 1017.97 1017.64 1016.89 1017.33 1016.48 1016.30 1015.79 1016.15 1016.11 1016.31 1016.19 1016.21 1015.95 1015.57 1015.49 1014.97 1015.09 1014.73 1014.19 1013.56 1013.15 1012.42 1012.31 1012.45 1013.19 1013.85 1013.23 1012.88 1012.80 1014.14 1014.56 1015.13 1016.30 1017.13 1017.64 1018.47 1019.44 1020.33
1018.76 1018.52 1018.42 1018.34 1018.04 1017.93 1017.49 1016.77 1016.56 1017.05 1017.24 1016.24 1016.06 1016.16 1016.11 1016.13 1016.17 1016.12 1015.96 1015.66 1015.53 1015.24 1015.26 1014.83 1014.23 1014.05 1014.12 1013.68 1013.01 1011.83 1012.06 1011.34 1011.39 1010.61 1010.56 1011.57 1012.31 1013.72 1015.55 1016.81 1017.53 1018.43 1019.46 1020.54
1018.48 1018.30 1018.17 1017.92 1017.72 1017.67 1017.24 1016.82 1016.94 1016.87 1017.02 1016.64 1016.44 1016.14 1015.81 1016.16 1016.17 1016.07 1015.93 1015.81 1015.85 1015.44 1014.67 1014.37 1014.29 1014.88 1014.68 1013.55 1011.68 1009.30 1009.80 1009.71 1009.69 1010.21 1011.08 1012.26 1012.99 1013.66 1015.23 1016.56 1017.48 1018.45 1019.45 1020.49
1018.23 1018.05 1017.90 1017.72 1017.56 1017.75 1016.93 1016.64 1016.72 1016.60 1017.18 1016.93 1016.28 1015.78 1016.18 1016.23 1016.25 1016.38 1016.47 1016.54 1016.17 1015.70 1015.08 1014.82 1014.50 1015.22 1014.84 1013.58 1011.03 1009.02 1008.78 1009.28 1009.79 1010.90 1011.88 1012.86 1013.27 1014.05 1015.20 1016.42 1017.61 1018.67 1019.51 1020.56
1017.95 1017.67 1017.52 1017.30 1017.09 1017.16 1016.72 1016.09 1016.40 1016.22 1016.87 1016.61 1015.98 1015.93 1016.14 1016.07 1015.62 1016.04 1016.56 1016.52 1016.48 1016.01 1015.30 1015.47 1014.75 1015.41 1014.82 1012.75 1010.02 1008.97 1008.70 1008.93 1009.62 1010.78 1011.38 1011.78 1012.69 1014.01 1015.28 1016.37 1017.59 1018.49 1019.28 1020.34
1017.63 1017.38 1017.14 1016.94 1016.85 1016.47 1015.69 1016.14 1016.01 1016.45 1017.03 1016.85 1015.67 1014.25 1014.71 1015.47 1015.61 1016.04 1016.57 1016.39 1016.51 1016.53 1015.25 1014.74 1014.48 1013.70 1012.34 1009.61 1008.49 1007.87 1007.76 1007.85 1008.44 1010.49 1011.79 1012.35 1013.02 1013.86 1014.90 1015.82 1017.05 1017.87 1018.76 1019.92
1017.29 1017.14 1016.72 1016.28 1016.05 1015.97 1016.03 1016.05 1016.04 1016.49 1016.37 1016.39 1015.13 1013.22 1014.13 1014.43 1015.10 1015.74 1016.07 1016.39 1015.83 1015.80 1014.27 1014.34 1013.55 1010.83 1008.85 1008.27 1007.67 1007.23 1006.91 1007.40 1008.44 1009.84 1011.27 1011.76 1012.39 1013.20 1014.10 1014.72 1015.98 1017.12 1018.08 1019.33
1016.84 1016.74 1016.55 1016.48 1015.97 1015.85 1015.36 1015.52 1015.33 1015.64 1015.31 1014.41 1013.47 1012.60 1013.23 1014.13 1013.85 1014.53 1015.33 1015.43 1015.35 1014.82 1013.32 1013.20 1011.35 1008.78 1007.15 1006.67 1006.13 1005.57 1005.46 1005.92 1006.57 1006.65 1007.45 1009.04 1009.70 1011.55 1013.07 1014.24 1015.33 1016.58 1017.64 1018.69
1017.43 1017.58 1017.21 1016.97 1016.21 1015.57 1015.09 1014.44 1014.35 1013.93 1012.31 1011.80 1011.56 1012.15 1012.51 1013.62 1013.62 1013.76 1015.21 1014.65 1014.67 1013.39 1013.00 1012.25 1008.97 1006.38 1005.21 1004.70 1003.91 1002.94 1004.19 1004.98 1005.87 1006.80 1007.45 1008.58 1009.29 1010.83 1012.31 1013.45 1014.59 1015.87 1017.27 1018.39
1017.08 1017.33 1017.02 1016.40 1015.67 1014.95 1013.68 1012.06 1011.44 1010.98 1010.00 1010.63 1010.48 1011.41 1012.30 1013.71 1013.45 1013.56 1013.73 1013.83 1013.17 1012.43 1011.78 1009.12 1006.76 1004.90 1004.05 1003.43 1003.60 1003.61 1003.75 1004.10 1005.25 1006.24 1007.15 1008.31 1009.04 1010.44 1011.76 1013.10 1014.22 1015.62 1017.06 1018.08
1017.19 1017.15 1016.33 1015.31 1013.78 1012.52 1011.08 1010.63 1009.65 1008.80 1008.92 1009.06 1009.63 1010.38 1011.37 1012.24 1012.71 1012.76 1012.81 1012.84 1012.16 1011.14 1008.65 1005.97 1004.63 1003.76 1003.07 1002.43 1002.89 1003.40 1003.17 1003.90 1004.70 1005.61 1006.56 1007.73 1008.61 1010.20 1011.25 1012.51 1013.65 1015.12 1016.61 1017.69
1017.21 1016.93 1015.15 1013.33 1012.06 1011.51 1011.22 1011.09 1010.46 1009.89 1009.50 1009.50 1010.22 1010.75 1011.07 1011.98 1012.44 1012.63 1012.76 1012.25 1009.53 1007.40 1005.12 1003.83 1002.65 1002.06 1001.95 1001.79 1002.55 1003.05 1003.34 1003.99 1004.75 1005.50 1006.30 1007.16 1008.18 1009.60 1011.03 1012.15 1013.43 1014.85 1016.43 1017.41
1017.09 1016.16 1014.57 1013.05 1012.24 1011.42 1010.80 1010.55 1010.61 1010.72 1010.35 1010.12 1010.28 1010.81 1011.10 1011.23 1011.06 1011.15 1009.68 1007.82 1005.56 1004.21 1003.37 1002.38 1002.38 1002.50 1002.66 1002.67 1002.92 1003.10 1003.32 1003.80 1004.48 1005.21 1006.06 1007.05 1008.18 1009.22 1010.42 1011.96 1013.31 1014.49 1015.85 1016.75
1015.94 1014.67 1013.88 1012.92 1012.21 1011.70 1011.44 1011.41 1011.54 1011.98 1011.76 1011.32 1011.10 1010.52 1009.48 1009.69 1009.52 1008.49 1006.17 1004.22 1002.88 1002.39 1002.34 1002.52 1002.91 1003.13 1003.16 1003.30 1003.18 1003.10 1003.29 1003.61 1004.18 1005.15 1006.21 1007.17 1008.46 1009.69 1010.86 1011.78 1013.09 1014.32 1015.61 1016.53
Wind_Speed
22 13 6 5 6 9 2 4 5 3 4 8 9 13 8 3 7 4 3 3 3 6 5 5 5 3 4 2 2 1 3 5 2 5 3 2 3 3 4 2 1 2 3 3
20 22 7 4 2 5 4 4 4 3 5 8 9 4 3 2 5 7 6 6 3 1 5 4 3 3 2 2 3 0 2 3 3 6 4 4 6 4 1 3 0 7 3 2
18 20 18 5 1 3 2 3 4 4 6 5 8 13 12 8 3 4 4 5 4 5 5 3 5 6 3 3 1 1 2 4 6 5 4 1 4 7 8 6 3 2 10 11
19 21 20 9 3 2 2 3 4 3 6 11 11 11 7 15 8 6 8 5 11 9 5 6 6 6 6 4 6 4 4 5 3 4 3 4 7 7 10 12 10 6 1 11
15 19 21 23 3 5 2 3 4 2 2 4 16 7 10 12 9 11 8 9 13 11 6 5 7 10 7 4 9 6 4 1 2 4 3 6 10 11 11 14 14 16 17 16
13 16 18 18 18 3 4 2 1 4 2 5 8 13 13 14 10 5 4 10 7 11 4 5 8 6 5 7 7 10 6 3 3 2 3 5 10 13 14 8 8 7 7 3
13 15 17 19 19 10 4 1 3 3 4 7 9 5 15 10 13 3 4 4 10 7 14 15 13 11 10 8 6 0 5 4 1 4 2 4 5 3 3 14 8 13 8 5
10 14 15 19 20 22 7 2 3 3 4 7 6 8 5 7 6 4 6 4 4 16 7 4 6 4 4 5 4 2 4 4 1 3 4 6 4 5 6 7 2 13 14 9
7 9 13 14 15 19 6 5 3 3 3 7 4 9 10 7 8 6 4 3 10 2 3 3 6 7 5 5 5 1 1 1 2 2 3 4 5 8 4 3 4 8 11 11
5 8 11 13 13 15 8 2 4 3 3 3 6 5 7 5 8 4 7 9 5 3 3 4 5 4 1 7 9 8 5 3 5 7 4 6 6 11 7 2 2 11 11 12
4 8 10 11 13 16 6 2 3 2 2 2 4 3 4 3 7 6 12 8 4 3 5 5 5 5 6 4 5 8 9 9 5 4 3 7 14 9 7 5 7 11 10 11
4 7 9 11 14 17 10 4 2 1 3 3 3 2 2 1 4 2 13 3 8 8 6 5 3 3 4 5 4 4 6 5 4 9 4 4 20 3 5 7 10 11 12 10
5 6 9 9 11 8 10 2 2 3 2 3 4 5 5 4 2 4 5 3 5 5 3 2 1 4 6 7 6 5 7 4 3 2 6 9 16 8 7 7 10 11 11 12
8 7 7 8 9 10 8 3 1 3 3 3 4 2 3 1 4 5 1 2 3 4 1 2 3 3 2 2 2 4 2 12 8 7 6 2 10 17 13 11 11 13 12 13
10 12 8 8 8 12 8 3 3 3 4 3 1 2 4 1 4 6 5 6 5 3 3 3 4 2 4 1 0 6 10 9 8 5 7 3 4 19 20 17 18 16 16 15
11 8 10 12 7 10 4 2 2 2 3 2 3 2 3 3 5 6 6 4 2 2 2 3 2 3 3 4 5 5 15 11 11 1 8 7 4 17 21 18 18 17 16 15
10 10 12 10 10 2 3 1 2 2 2 3 1 3 4 5 5 3 3 1 1 2 1 3 2 3 3 2 6 5 12 12 11 8 13 7 13 11 20 16 18 18 15 14
11 13 14 14 5 7 5 2 2 3 2 2 3 3 4 8 4 4 2 3 1 2 1 1 3 3 3 7 11 10 6 10 13 14 8 3 12 16 19 17 18 19 17 16
13 14 16 4 2 4 1 8 7 3 3 2 3 7 7 7 3 3 3 2 3 2 4 4 5 4 9 12 14 13 17 17 10 13 10 9 15 19 20 22 22 20 18 17
14 6 3 3 1 3 8 3 2 1 1 3 5 2 5 6 5 3 5 2 3 4 6 6 6 8 12 8 13 10 11 18 15 19 13 16 17 20 23 24 19 17 17 17
2 2 2 5 7 2 1 3 3 3 4 5 5 6 6 5 5 5 4 4 3 3 4 7 7 7 8 17 20 21 20 17 22 21 17 20 16 21 22 22 20 18 19 17
2 3 3 3 2 1 3 5 3 5 7 7 7 6 3 4 1 4 4 5 3 6 7 4 5 5 9 11 23 26 18 16 19 19 13 18 16 20 20 20 20 19 18 17
1 3 3 3 3 6 8 10 6 6 5 6 7 6 4 3 2 4 4 7 7 5 5 6 7 5 6 10 6 6 10 16 17 15 15 17 16 20 21 20 18 19 17 17
2 3 6 6 6 6 4 5 7 3 3 9 9 5 5 3 4 3 5 2 4 5 6 7 6 9 13 8 6 6 11 15 16 16 17 18 19 19 19 20 19 20 18 18
3 4 7 8 7 5 6 4 4 3 4 7 3 3 3 3 4 2 4 2 8 8 5 5 7 13 14 12 7 8 8 12 14 15 16 17 20 20 19 19 19 19 18 18
3 7 4 7 6 5 3 4 4 3 2 0 2 1 5 4 4 6 11 6 8 5 5 3 4 4 4 3 4 6 7 11 12 14 15 16 19 21 21 20 19 19 19 19
5 5 7 9 8 7 5 2 3 4 2 2 3 6 6 5 5 7 7 4 0 2 2 2 5 5 3 2 3 7 9 11 13 14 15 15 16 17 18 21 20 19 18 17
Wind_Direction
358 337 282 305 332 337 282 292 235 103 201 210 215 224 226 55 161 183 188 279 268 227 178 204 223 203 55 113 178 173 59 314 277 45 97 9 309 303 294 284 134 276 277 310
0 358 277 284 337 13 316 252 262 139 230 217 206 158 134 209 180 192 177 188 254 211 200 218 215 148 94 140 204 354 118 187 249 177 185 190 250 175 163 112 75 233 295 24
3 358 355 268 238 38 274 281 222 166 208 265 257 207 215 190 207 192 206 138 155 170 183 206 179 157 146 157 183 20 273 279 269 308 13 40 201 199 207 216 242 280 244 291
5 4 4 337 203 100 264 217 260 345 191 218 232 211 240 202 182 227 199 186 218 197 183 184 195 144 145 173 158 191 260 273 283 271 265 238 263 235 197 215 243 246 25 298
359 5 6 10 239 123 230 282 254 210 332 282 215 206 217 206 184 170 203 234 190 202 209 226 183 170 187 176 173 192 185 263 290 265 184 246 262 249 231 228 248 265 274 285
357 358 1 8 3 184 236 132 254 282 133 219 208 216 225 216 177 193 345 221 168 197 163 78 49 73 73 128 160 186 181 216 247 273 167 280 259 237 206 215 210 224 250 52
4 353 346 3 357 348 314 299 290 235 240 216 216 252 227 217 206 229 144 235 209 111 123 112 94 90 93 99 77 33 183 187 168 285 240 256 84 52 296 217 240 219 243 185
3 3 347 353 357 2 252 254 251 256 257 223 221 218 172 115 126 103 132 60 4 157 151 124 143 154 164 110 67 131 309 147 202 265 259 306 177 197 180 188 292 215 222 211
352 358 351 350 351 7 279 238 246 284 285 228 279 183 189 172 182 142 98 82 123 179 203 155 188 198 188 168 142 94 150 306 239 165 252 259 74 145 144 151 242 170 185 185
336 349 353 349 345 13 340 268 198 253 254 198 179 190 189 206 177 127 131 150 185 271 197 186 190 196 43 174 180 167 166 188 205 214 261 276 112 144 152 223 77 162 176 169
344 344 349 337 5 12 27 332 195 264 257 194 217 208 165 135 180 166 137 134 193 168 211 210 189 218 194 195 125 174 172 157 191 193 220 260 144 131 208 110 133 156 167 165
331 331 337 338 349 359 17 288 354 243 268 359 318 296 306 357 7 114 179 351 149 167 188 215 146 172 157 208 199 190 209 213 183 206 219 82 181 13 146 158 159 171 167 164
308 301 322 346 344 336 335 253 289 238 209 245 223 203 174 194 215 331 175 217 206 203 357 144 173 187 176 177 221 163 218 155 230 311 171 195 191 180 173 181 164 168 164 161
331 322 313 321 332 324 323 234 142 278 268 247 154 142 175 115 196 209 257 11 73 69 137 140 175 210 237 196 41 218 86 152 191 251 219 159 218 204 183 177 158 161 159 161
315 311 308 312 316 322 313 272 224 245 295 299 89 208 139 141 200 193 190 181 173 185 170 176 211 110 176 122 108 220 185 177 187 219 166 214 130 187 175 172 171 167 163 159
315 315 302 308 301 331 264 184 69 50 280 261 230 62 128 126 164 162 155 143 163 250 232 211 144 29 245 202 217 224 189 215 222 246 124 80 80 165 168 175 172 168 168 166
306 298 301 309 288 277 256 323 136 41 357 228 236 187 129 149 138 139 146 137 151 260 251 236 205 174 229 248 227 193 206 206 197 147 128 112 153 177 171 170 168 164 162 163
297 305 308 312 276 285 272 158 258 179 179 279 191 130 175 190 161 148 159 146 207 195 220 219 219 129 218 246 239 250 203 201 198 187 204 47 158 154 167 163 161 167 168 167
300 304 299 273 191 230 115 121 94 40 94 257 242 171 176 171 109 99 145 225 175 84 216 212 167 183 223 213 220 217 205 198 195 171 176 155 162 166 168 168 171 174 173 173
302 275 238 238 224 83 169 188 91 73 194 182 258 109 143 181 161 156 132 210 201 193 211 124 207 246 234 224 234 246 230 210 163 161 185 185 181 179 178 182 175 177 171 170
253 277 281 338 314 223 225 172 166 169 205 192 234 204 146 214 159 138 216 175 172 194 170 198 207 246 219 212 226 228 227 208 191 201 201 189 174 174 178 179 176 178 173 174
342 291 271 276 294 229 219 198 156 218 224 184 170 175 131 157 225 122 188 165 171 230 137 206 246 230 216 205 222 232 222 210 197 204 204 181 176 176 177 173 172 173 169 167
237 223 250 224 191 233 215 196 176 215 170 178 168 137 133 149 211 94 145 169 201 123 191 224 237 258 257 249 242 230 221 195 194 191 202 178 169 169 171 171 167 162 165 162
215 221 238 220 209 243 242 295 335 96 206 171 190 114 154 154 149 127 143 105 148 216 232 224 223 227 247 243 191 189 210 185 186 187 181 176 164 172 168 168 163 161 166 160
227 225 235 227 249 301 304 321 305 23 311 170 97 89 106 75 94 52 108 147 237 206 227 202 224 216 225 241 175 191 181 182 190 188 179 172 163 166 165 165 162 160 159 157
237 235 256 257 266 280 316 353 340 1 311 333 34 106 141 178 156 164 215 211 207 208 221 266 332 345 24 35 131 186 175 183 188 182 177 167 165 168 165 159 162 161 162 159
231 241 243 267 280 269 274 324 9 13 6 235 182 224 178 114 180 221 213 212 161 235 163 54 20 347 332 262 201 178 171 183 182 175 174 168 159 154 155 160 166 160 162 156